GFSFLT1_700_avort_288.txt.gz
Vorticity
5 6 5 4 3 3 3 4 8 7 7 6 8 7 8 9 9 11 12 13 11 12 13 15 18 19 18 17 20 20 18 19
5 7 6 4 3 3 4 7 9 6 5 7 7 7 8 9 9 11 13 13 12 12 13 16 17 17 17 19 21 20 16 16
5 6 7 5 3 4 6 9 7 6 6 7 7 8 8 9 10 12 13 13 12 11 13 15 17 16 16 18 17 18 14 17
2 6 7 4 4 5 8 10 6 6 7 6 7 8 8 9 11 15 13 12 12 11 12 14 16 17 16 15 17 16 12 16
1 7 5 6 4 5 10 9 5 7 6 6 7 7 8 10 13 16 14 13 12 11 11 14 16 19 15 15 15 14 12 13
1 4 7 6 4 7 10 7 6 6 6 7 7 8 9 10 14 16 13 12 12 11 11 13 16 19 15 14 14 12 11 12
1 4 8 5 6 7 9 7 6 6 6 7 7 7 9 11 15 15 13 12 11 11 11 13 16 19 17 14 13 13 10 11
1 5 9 5 7 8 7 7 6 6 6 7 7 8 9 13 14 16 12 12 12 11 11 13 15 17 17 14 13 13 10 10
3 8 6 5 8 7 7 6 6 6 6 8 8 8 11 14 15 16 12 12 11 10 11 12 14 17 17 16 13 12 11 8
6 10 6 8 6 7 6 7 6 6 7 8 7 8 11 14 16 15 12 12 11 10 12 13 14 16 16 16 14 13 11 9
9 9 7 7 5 6 7 6 7 7 8 8 7 9 11 14 16 15 12 11 10 10 12 13 13 15 17 16 15 12 10 10
11 7 8 6 5 6 7 7 7 8 8 7 8 9 12 13 16 15 11 11 10 10 12 13 13 14 17 16 15 13 10 8
9 8 8 4 6 6 7 7 8 8 8 7 8 10 11 14 16 15 11 11 10 9 11 13 13 14 17 17 15 14 11 9
7 9 5 5 7 7 7 7 8 8 7 7 8 10 11 13 16 16 12 11 10 9 10 13 13 15 16 16 16 14 12 11
7 8 5 6 7 7 7 8 8 8 7 7 8 10 11 12 15 17 12 10 10 8 9 11 12 15 14 16 17 13 11 10
6 8 6 6 7 8 8 9 8 8 7 7 8 10 10 12 14 17 13 10 11 8 8 9 11 13 15 13 14 14 11 9
7 7 6 7 8 7 9 8 8 7 7 7 8 10 10 12 14 15 14 11 9 10 8 7 10 10 13 14 12 11 11 10
8 7 7 8 7 8 10 8 8 8 7 7 8 10 10 11 12 14 15 12 9 11 10 7 8 9 11 13 13 11 12 10
8 8 8 8 7 9 10 8 7 8 7 7 8 10 10 11 11 14 13 12 11 9 11 9 7 8 10 10 13 13 11 10

GFSFLT1_700_avort_291.txt.gz
Vorticity
2 5 6 6 4 4 5 4 5 8 8 6 6 7 8 8 9 10 12 14 15 14 13 12 13 17 18 19 19 21 20 22
2 4 6 7 5 4 5 4 6 10 6 7 7 7 8 9 9 11 14 14 16 13 11 11 13 15 18 15 16 18 19 21
-6 2 6 6 5 5 4 4 10 8 7 7 7 7 8 8 10 14 16 14 13 11 11 10 13 17 19 15 15 17 16 17
-1 -1 7 8 4 4 2 6 10 7 7 6 7 7 8 9 14 15 19 13 11 11 10 11 14 18 13 15 13 16 15 12
2 1 7 5 5 4 4 9 9 7 6 7 6 7 8 11 14 17 16 11 11 10 11 12 15 18 17 13 12 14 12 13
-4 1 8 5 4 3 7 9 7 7 6 6 7 8 10 11 15 19 13 11 11 10 11 13 15 17 15 14 13 14 10 12
5 5 9 4 4 4 7 9 7 7 6 6 7 8 10 12 15 19 12 11 10 10 11 14 15 15 15 14 12 12 10 11
6 8 5 2 4 4 9 8 6 7 6 7 7 9 10 12 17 16 10 10 9 10 12 14 14 16 15 14 12 11 12 9
8 2 7 3 5 6 9 8 7 6 6 7 8 9 10 13 18 15 9 9 9 10 12 13 16 15 15 14 12 11 11 9
5 4 9 4 5 9 9 8 7 6 7 7 8 8 10 14 19 13 10 9 8 10 12 14 15 14 15 14 12 10 10 9
4 7 8 5 7 8 8 7 6 6 7 7 8 9 10 14 18 13 9 9 9 10 13 14 15 15 15 15 12 10 9 8
7 8 7 6 7 8 8 7 6 6 7 7 9 9 10 14 18 13 9 9 8 9 12 14 15 14 15 14 13 10 9 8
5 8 8 6 8 7 7 7 7 7 7 7 9 9 10 13 18 13 10 9 8 8 12 14 16 13 16 15 13 12 11 10
8 9 7 7 8 7 7 7 6 7 7 7 9 8 9 12 17 14 10 9 8 8 10 13 16 14 14 15 13 10 9 9
8 9 7 8 7 7 7 7 7 7 7 7 9 9 9 10 16 15 12 10 8 7 9 12 14 15 13 12 12 10 9 10
8 9 8 8 7 7 7 8 7 7 7 8 9 9 8 9 15 17 13 10 9 7 8 8 12 14 16 12 11 9 9 10
10 9 8 8 7 8 8 7 7 7 7 7 9 9 9 8 13 15 15 11 8 9 7 7 9 10 13 13 13 10 10 10
11 9 9 8 7 8 8 8 8 7 7 7 9 9 9 8 10 14 15 14 10 8 9 7 7 8 9 11 16 11 10 9
9 8 9 7 7 8 8 8 8 7 7 7 8 10 10 8 8 12 14 14 12 10 8 9 8 6 8 9 13 12 11 10

GFSFLT1_700_avort_297.txt.gz
Vorticity
3 -0 4 -1 6 7 5 6 7 6 6 6 5 6 7 12 10 7 24 15 8 8 8 10 12 15 17 19 17 14 13 14
3 6 3 3 7 7 5 5 7 6 5 5 6 7 11 10 11 17 19 8 7 8 9 13 15 16 17 15 14 13 12 14
2 5 -1 1 6 6 5 4 6 5 5 6 7 9 10 9 12 24 10 8 7 9 12 13 14 16 16 15 13 16 12 13
6 2 -2 2 5 6 5 5 6 4 6 7 7 11 10 10 20 16 8 7 8 10 13 14 15 14 15 13 12 11 12 13
3 -1 -3 4 7 4 5 5 5 5 6 7 8 10 9 13 21 12 8 7 8 12 13 15 14 16 15 12 11 10 8 12
7 -3 4 2 14 3 4 5 4 6 6 8 9 10 9 14 20 11 8 8 9 12 13 14 16 15 14 13 12 8 9 12
2 4 1 5 10 3 5 5 5 7 7 8 10 9 8 16 17 10 8 7 9 12 13 14 17 15 14 13 12 9 10 12
6 4 3 9 9 4 5 5 6 7 8 8 10 9 8 18 14 9 8 7 8 11 13 14 16 14 14 12 12 10 10 13
-1 5 6 7 8 6 6 6 7 8 7 9 10 8 8 18 14 10 8 7 8 10 14 14 15 13 13 12 11 10 9 12
6 7 11 12 5 6 6 7 7 8 8 9 9 8 9 17 14 11 8 7 8 10 14 14 13 12 11 11 11 11 11 12
9 9 11 8 6 7 6 8 7 8 8 9 9 8 9 16 15 11 9 7 8 10 12 14 11 11 10 11 11 11 13 12
7 11 9 6 7 8 7 8 8 8 7 9 9 8 8 15 16 12 9 7 7 9 11 15 12 10 9 11 12 13 14 13
7 9 7 8 6 8 7 7 8 8 7 8 9 8 8 12 17 12 10 9 7 8 11 14 13 11 9 11 9 13 15 16
9 6 8 8 7 8 7 7 8 8 7 9 9 8 7 11 17 14 11 9 9 7 10 12 14 12 10 10 8 11 15 16
8 6 8 8 8 8 8 7 8 8 7 8 9 8 7 9 17 15 12 10 9 9 7 10 12 13 10 10 8 9 13 14
8 8 7 9 8 8 8 8 8 8 7 8 9 8 7 8 15 15 14 11 9 9 9 7 10 13 9 11 10 9 12 14
8 11 7 9 9 8 8 8 8 8 6 8 9 8 7 7 12 15 15 14 11 9 8 9 7 8 8 11 11 10 10 16
8 11 7 9 9 8 8 8 9 8 7 8 9 9 8 7 8 13 16 15 14 12 9 7 9 7 7 9 12 11 11 12
8 8 8 8 8 8 8 8 8 8 7 8 9 10 9 7 6 9 12 16 14 14 12 9 7 10 7 7 11 13 11 12

GFSFLT1_700_avort_300.txt.gz
Vorticity
-1 6 6 4 3 7 7 6 6 7 7 5 4 5 6 8 8 10 23 16 8 7 9 11 13 16 17 16 14 12 11 12
-0 2 3 8 3 6 6 6 7 8 6 5 5 5 8 8 8 19 18 12 7 8 11 12 16 17 16 13 12 13 13 12
2 2 3 5 4 6 5 6 8 7 6 5 5 6 9 7 13 20 14 9 8 10 12 14 16 16 14 15 13 15 14 12
2 2 1 4 2 10 5 7 7 7 6 5 5 8 9 7 18 18 11 8 8 11 13 16 15 14 15 13 12 13 11 17
-1 0 2 1 3 13 5 7 7 6 5 5 6 10 8 11 20 14 9 7 9 12 15 14 14 15 15 12 12 11 10 14
2 0 5 4 5 8 7 7 7 6 5 4 7 10 7 13 19 13 9 7 10 13 15 13 15 15 14 11 11 10 10 12
6 7 6 5 8 6 7 7 8 6 4 6 8 9 7 15 18 12 9 7 10 13 13 13 15 13 13 11 11 10 10 13
5 4 4 6 12 7 6 7 8 6 5 6 9 8 8 15 17 10 8 7 9 11 13 12 13 11 11 11 12 12 12 13
0 5 4 7 10 7 7 7 9 5 5 7 9 8 8 17 16 10 8 7 9 10 13 12 12 11 9 10 12 12 13 14
3 3 5 16 7 7 7 9 8 5 6 8 9 8 8 16 17 10 9 7 8 9 12 15 11 10 10 13 13 13 13 15
5 5 12 9 8 8 7 9 7 5 6 8 9 8 8 15 18 12 9 8 7 9 11 15 14 11 10 13 14 14 14 14
6 9 12 9 8 7 6 9 7 6 6 8 9 8 8 14 16 14 10 9 8 8 11 13 14 12 11 11 15 17 15 14
7 11 10 9 9 6 7 8 7 6 7 8 9 8 8 12 17 14 12 9 10 7 9 12 14 11 10 12 13 18 17 16
10 10 11 8 8 6 8 8 7 7 7 8 9 8 7 11 16 15 12 9 9 9 8 11 13 13 8 10 11 17 17 17
9 11 9 8 7 6 8 8 7 7 7 9 10 8 7 9 15 15 14 11 9 9 9 8 12 12 9 9 11 16 16 15
12 11 8 8 7 6 9 7 8 7 8 9 10 8 7 8 12 15 15 12 11 9 9 9 8 11 9 10 11 15 16 15
14 10 7 7 6 7 10 8 8 8 8 9 10 9 7 7 9 13 16 14 12 10 9 9 9 7 9 12 11 12 16 19
11 8 7 7 6 8 10 8 8 8 8 9 9 9 8 7 7 10 14 15 15 13 11 10 9 9 7 10 13 12 14 17
8 8 8 7 6 9 10 8 8 8 9 9 9 9 9 7 6 7 12 14 14 14 14 11 9 8 10 7 12 14 14 13

GFSFLT1_700_avort_303.txt.gz
Vorticity
0 1 2 5 4 2 8 7 6 6 7 6 6 5 6 7 6 10 14 13 15 10 9 13 14 16 15 14 14 13 14 12
2 1 3 1 4 2 8 7 6 7 7 6 6 5 7 6 8 13 13 14 12 8 11 14 15 16 15 13 12 14 14 14
3 -0 2 0 4 1 8 7 6 8 7 6 6 6 6 7 9 13 14 13 10 10 14 16 15 14 13 14 13 13 11 11
0 0 1 0 4 3 7 6 7 8 7 6 6 7 7 7 10 16 14 11 9 12 14 15 13 12 14 12 11 10 9 12
8 1 1 0 4 3 7 7 7 7 7 6 6 7 7 7 13 17 12 10 9 13 15 13 11 12 12 12 10 10 10 12
4 2 0 5 3 2 8 7 7 7 7 6 6 8 7 8 15 16 12 9 9 13 15 11 11 11 10 11 12 13 13 13
8 1 5 2 3 1 10 7 7 7 7 6 7 8 7 9 16 14 11 9 9 13 13 12 10 10 10 11 13 15 14 14
2 -1 4 4 2 7 9 7 7 8 7 7 7 8 7 10 14 14 11 8 8 11 11 13 11 9 9 12 15 16 15 14
7 2 3 4 1 11 7 7 8 8 7 7 8 7 8 11 14 14 11 8 7 10 12 13 12 10 10 13 16 16 16 14
4 5 4 3 8 9 7 8 8 8 7 8 7 7 8 11 15 14 11 9 7 9 11 13 12 10 11 16 17 17 15 11
6 5 5 4 9 7 7 8 8 8 7 8 7 8 8 11 16 14 12 10 9 8 11 12 12 10 12 18 17 16 13 11
8 5 3 10 8 7 8 9 8 8 7 7 8 8 8 10 16 16 13 10 10 8 9 11 13 11 12 16 18 16 13 14
6 2 9 9 7 7 10 9 8 7 7 8 8 8 8 10 15 16 14 11 9 10 8 11 12 12 11 15 16 16 13 17
6 7 10 7 7 9 9 8 8 7 7 8 8 8 8 10 12 15 15 12 10 8 10 8 11 12 11 14 15 16 11 15
7 11 8 7 9 10 8 8 8 7 8 7 9 8 8 8 10 14 15 13 12 9 9 9 9 12 11 13 15 16 11 15
9 9 7 8 8 10 8 8 8 7 7 8 9 8 9 7 9 12 14 14 13 11 9 10 8 11 10 12 13 18 13 14
10 9 8 7 10 8 8 8 9 7 7 8 9 8 8 7 8 11 13 14 15 13 11 8 10 8 11 13 13 17 16 14
10 8 8 8 9 7 9 9 8 8 7 9 8 9 9 8 7 9 12 12 14 14 13 11 7 11 8 12 14 15 20 13
10 7 8 10 7 8 9 8 9 8 7 8 8 9 9 9 7 8 10 13 12 13 14 13 10 8 9 10 12 17 15 19

GFSFLT1_700_avort_306.txt.gz
Vorticity
3 2 2 1 1 2 2 5 6 6 7 7 7 7 7 7 7 9 13 13 12 10 8 11 13 15 14 13 13 13 15 12
3 3 2 1 2 2 2 3 6 7 8 7 7 7 7 8 8 12 14 11 10 9 10 12 14 14 15 14 12 13 13 11
6 2 4 1 2 2 2 1 7 7 8 7 7 7 8 8 10 12 14 10 9 8 11 14 15 14 12 12 12 10 12 11
2 1 2 -0 2 2 2 1 8 8 8 7 7 8 9 8 10 16 11 9 9 9 12 16 14 11 10 10 11 11 12 14
13 6 0 1 1 1 1 4 9 8 7 7 7 9 8 9 13 15 11 9 8 10 13 16 12 9 9 9 11 12 13 15
3 -0 3 3 2 1 -0 9 7 8 7 7 8 9 9 10 13 14 12 9 8 10 13 14 13 10 9 9 13 14 14 15
6 11 8 6 1 1 2 9 8 8 7 7 9 10 9 10 13 15 11 10 8 9 12 13 12 10 10 11 14 15 17 14
3 3 4 2 -0 1 7 8 7 8 7 8 10 10 8 10 13 13 11 10 9 8 11 13 12 10 11 14 16 16 16 12
6 7 6 0 2 1 10 8 9 7 8 9 11 8 8 9 13 13 11 10 9 8 11 12 12 11 12 18 16 15 13 11
3 9 5 2 1 8 10 8 7 9 8 10 9 8 8 10 13 14 12 11 10 8 10 12 12 11 16 17 14 12 12 12
7 9 4 2 4 10 8 7 9 8 8 10 8 8 7 10 14 15 14 12 9 9 9 11 12 13 16 18 12 12 15 18
11 6 2 2 9 9 7 8 9 8 8 9 8 8 7 10 13 15 15 13 10 10 8 10 12 15 15 17 10 15 18 18
8 2 3 8 9 9 8 9 9 8 9 9 9 8 7 9 12 15 15 13 11 8 9 8 12 14 15 15 12 15 16 20
5 5 6 9 9 8 8 9 8 8 9 9 9 7 7 9 12 14 15 14 12 8 10 8 12 13 14 15 12 15 17 17
5 6 8 10 8 8 9 9 8 8 9 9 8 7 8 9 11 13 15 15 14 10 8 9 11 13 13 17 15 14 17 14
8 8 10 9 8 8 10 8 8 8 7 10 8 8 8 8 10 12 12 15 16 12 8 9 9 13 13 14 19 14 19 10
9 10 9 8 7 9 9 7 8 8 8 9 8 9 9 8 9 11 11 12 16 16 11 8 10 11 13 12 20 18 16 12
10 8 8 8 8 9 8 8 9 8 8 8 9 9 9 8 9 10 11 11 11 15 16 11 8 10 13 12 16 17 16 18
10 7 9 8 8 8 8 8 8 7 8 8 9 9 9 9 9 9 9 11 12 11 14 16 10 9 10 12 15 20 17 13